Weather in Chuya

Russia / Irkutsk Oblast     59°05′42″N   112°17′53″E
temp.,
°C
wind,
m/s
gust,
m/s
humid.,
%
clouds,
%
prec.,
mm/h
press.,
hPa
HPBL,
m
8 may, sat
sat823:00−1ne119760 0.0 101710
02:00+1ese019684 0.0 101712
05:00−2ese119818 0.0 101711
08:00+5ne12835 0.0 1015332
11:00+8ne236615 0.0 10141199
14:00+10ene235380 0.4 10121713
17:00+9ne3463100 0.0 1011929
20:00+3ene229170 0.1 101314
9 may, sun
sun923:00−1ne1193100 0.0 101314
02:00−1nne1195100 0.0 101214
05:00−1nne1194100 0.0 101243
08:00+4ne127686 0.0 1011256
11:00+9ene235543 0.0 10101445
14:00+10e234997 0.3 10101675
17:00+10ene34505 0.2 10101704
20:00+6ne26766 0.2 1011100
10 may, mon
mon1023:00+2nne34825 0.0 101364
02:000nne24910 0.0 101373
05:000nne24936 0.0 101496
08:00+6ne3668100 0.0 1013612
11:00+10ene4549100 0.0 10131806
14:00+11nne4547100 0.1 10131740
17:00+10nne565171 0.1 10131523
20:00+7n3970100 0.3 1015279
11 may, tue
tue1123:00+5nne3885100 0.1 1015247
02:00+3n379487 0.3 1016264
05:00+3nne4794100 0.0 1015431
08:00+3n3796100 0.1 1016411
11:00+4n3594100 0.1 1016455
14:00+4nnw2589100 0.1 1016609
17:00+4nnw3587100 0.1 1015681
20:00+3nw2795100 0.1 1016657
12 may, wed
wed1223:00+2nnw2598100 0.5 1015540
02:00+2w12100100 1.5 1014204
05:00+1sw11100100 0.9 1014121
08:00+1w0099100 2.0 1014133
11:00+2nnw1299100 1.4 1014199
14:00+3wnw1396100 3.0 1014438
17:00+4ese1584100 0.9 1013653
20:00+4ne3972100 0.9 1014316